DW6558 Weather Reports


time (UTC)temp
C
wind
direction
speed
KPH
gust
KPH
rain 1hr
cm
rain 24hr
cm
rain mn
cm
humidity
%
barometer
mb
20260906234838 23 272 0.0 14.5 0.00 0.00 0.00 35 931.8
20260906234332 23 199 0.0 8.0 0.00 0.00 0.00 35 931.9
20260906233833 23 259 6.4 16.1 0.00 0.00 0.00 35 932.0
20260906233331 23 187 0.0 14.5 0.00 0.00 0.00 35 931.9
20260906232826 23 228 3.2 17.7 0.00 0.00 0.00 34 931.8
20260906232326 23 242 11.3 12.9 0.00 0.00 0.00 34 932.0
20260906231821 23 258 0.0 16.1 0.00 0.00 0.00 35 932.0
20260906231316 23 243 11.3 22.5 0.00 0.00 0.00 34 932.1
20260906230815 23 323 3.2 12.9 0.00 0.00 0.00 35 932.1
20260906230310 23 270 12.9 17.7 0.00 0.00 0.00 34 932.4
20260906225808 23 234 24.1 33.8 0.00 0.00 0.00 33 932.6
20260906225307 23 209 14.5 29.0 0.00 0.00 0.00 34 932.6
20260906224759 23 224 4.8 12.9 0.00 0.00 0.00 34 932.5
20260906224256 23 346 8.0 22.5 0.00 0.00 0.00 34 932.7
20260906223752 23 244 11.3 22.5 0.00 0.00 0.00 33 932.6
20260906223248 23 234 9.7 16.1 0.00 0.00 0.00 33 932.6
20260906222746 23 232 1.6 11.3 0.00 0.00 0.00 32 932.9
20260906222240 23 287 1.6 20.9 0.00 0.00 0.00 33 932.6
20260906221737 23 228 6.4 24.1 0.00 0.00 0.00 32 932.9
20260906221231 24 139 12.9 16.1 0.00 0.00 0.00 31 932.9
20260906220727 24 219 19.3 24.1 0.00 0.00 0.00 30 932.6
20260906220222 24 248 12.9 27.4 0.00 0.00 0.00 30 932.8
20260906215721 24 154 17.7 24.1 0.00 0.00 0.00 30 932.6
20260906215220 24 239 6.4 12.9 0.00 0.00 0.00 30 932.6
20260906214719 24 202 11.3 24.1 0.00 0.00 0.00 30 932.8
20260906214215 24 228 12.9 20.9 0.00 0.00 0.00 29 932.7
20260906213713 24 243 16.1 25.7 0.00 0.00 0.00 28 932.9
20260906213208 25 190 17.7 24.1 0.00 0.00 0.00 29 932.8
20260906212705 25 237 0.0 17.7 0.00 0.00 0.00 29 932.7
20260906212201 25 278 11.3 24.1 0.00 0.00 0.00 28 932.9
20260906211700 25 202 1.6 20.9 0.00 0.00 0.00 29 932.7
20260906211155 25 219 4.8 16.1 0.00 0.00 0.00 28 932.9
20260906210652 24 197 1.6 20.9 0.00 0.00 0.00 28 932.9
20260906210152 25 250 8.0 22.5 0.00 0.00 0.00 27 933.1
20260906205647 25 204 9.7 24.1 0.00 0.00 0.00 27 933.4
20260906205143 25 207 8.0 22.5 0.00 0.00 0.00 26 933.3
20260906204642 25 182 24.1 27.4 0.00 0.00 0.00 25 933.3
20260906204137 25 197 19.3 29.0 0.00 0.00 0.00 25 933.5
20260906203632 26 220 16.1 27.4 0.00 0.00 0.00 24 933.3
20260906203132 26 230 9.7 20.9 0.00 0.00 0.00 24 933.3
20260906202629 26 220 17.7 22.5 0.00 0.00 0.00 22 933.2
20260906202128 26 252 9.7 20.9 0.00 0.00 0.00 23 933.2
20260906201624 26 237 11.3 27.4 0.00 0.00 0.00 21 933.4
20260906201122 26 228 9.7 24.1 0.00 0.00 0.00 21 933.4
20260906200619 26 213 0.0 33.8 0.00 0.00 0.00 23 933.4
20260906200115 26 239 11.3 20.9 0.00 0.00 0.00 21 933.6
20260906195610 25 245 11.3 27.4 0.00 0.00 0.00 22 933.5
20260906195106 25 251 14.5 27.4 0.00 0.00 0.00 21 933.4
20260906194602 26 248 14.5 35.4 0.00 0.00 0.00 23 933.4
20260906194057 26 227 6.4 24.1 0.00 0.00 0.00 22 933.5
20260906193556 26 271 0.0 22.5 0.00 0.00 0.00 23 933.9
20260906193052 26 264 4.8 17.7 0.00 0.00 0.00 22 933.7
20260906192547 26 228 16.1 24.1 0.00 0.00 0.00 22 933.5
20260906192046 26 246 4.8 27.4 0.00 0.00 0.00 23 933.7
20260906191542 26 260 8.0 16.1 0.00 0.00 0.00 23 933.6
20260906191040 25 244 11.3 24.1 0.00 0.00 0.00 23 934.0
20260906190540 25 203 14.5 27.4 0.00 0.00 0.00 22 933.9
20260906190035 26 194 6.4 27.4 0.00 0.00 0.00 22 933.9
20260906185534 26 279 12.9 17.7 0.00 0.00 0.00 24 933.9
20260906185033 25 254 14.5 20.9 0.00 0.00 0.00 25 933.6
20260906184528 25 169 9.7 12.9 0.00 0.00 0.00 26 933.5
20260906184024 25 184 9.7 16.1 0.00 0.00 0.00 26 934.0
20260906183520 25 185 14.5 27.4 0.00 0.00 0.00 25 933.7
20260906183015 25 203 0.0 12.9 0.00 0.00 0.00 24 933.9
20260906182510 25 255 6.4 14.5 0.00 0.00 0.00 26 934.1
20260906182007 25 209 0.0 1.6 0.00 0.00 0.00 27 934.1
20260906181503 25 212 8.0 20.9 0.00 0.00 0.00 26 934.2
20260906180958 25 225 16.1 25.7 0.00 0.00 0.00 27 934.1
20260906180458 25 153 1.6 11.3 0.00 0.00 0.00 27 934.2
20260906175956 24 185 8.0 16.1 0.00 0.00 0.00 28 934.2
20260906175451 24 274 3.2 9.7 0.00 0.00 0.00 30 934.5
20260906174950 24 203 16.1 20.9 0.00 0.00 0.00 28 934.7
20260906174449 24 243 3.2 12.9 0.00 0.00 0.00 28 934.7
20260906173944 24 164 9.7 32.2 0.00 0.00 0.00 28 934.8
20260906173439 24 220 1.6 20.9 0.00 0.00 0.00 29 934.9
20260906172938 25 160 12.9 20.9 0.00 0.00 0.00 27 935.1
20260906172435 24 212 12.9 17.7 0.00 0.00 0.00 29 935.1
20260906171930 23 256 6.4 20.9 0.00 0.00 0.00 31 934.9
20260906171425 23 239 6.4 16.1 0.00 0.00 0.00 30 935.0
20260906170921 23 183 4.8 16.1 0.00 0.00 0.00 30 935.1
20260906170417 23 258 6.4 16.1 0.00 0.00 0.00 30 934.9
20260906165913 23 275 12.9 29.0 0.00 0.00 0.00 30 935.0
20260906165412 23 185 14.5 22.5 0.00 0.00 0.00 32 935.1
20260906164907 23 204 11.3 24.1 0.00 0.00 0.00 31 935.3
20260906164406 22 211 8.0 16.1 0.00 0.00 0.00 33 935.3
20260906163902 23 191 11.3 22.5 0.00 0.00 0.00 32 935.3
20260906163358 23 181 12.9 16.1 0.00 0.00 0.00 33 935.6
20260906162857 22 199 1.6 11.3 0.00 0.00 0.00 35 935.8
20260906162355 22 225 6.4 12.9 0.00 0.00 0.00 34 935.7
20260906161851 22 248 14.5 25.7 0.00 0.00 0.00 34 935.6
20260906161350 22 216 8.0 20.9 0.00 0.00 0.00 34 935.8
20260906160849 22 228 11.3 20.9 0.00 0.00 0.00 34 935.7
20260906160343 22 248 1.6 11.3 0.00 0.00 0.00 35 935.8
20260906155841 21 226 4.8 16.1 0.00 0.00 0.00 36 935.8
20260906155334 21 250 11.3 14.5 0.00 0.00 0.00 36 936.0
20260906154831 21 190 14.5 16.1 0.00 0.00 0.00 36 935.8
20260906154325 21 213 9.7 16.1 0.00 0.00 0.00 37 935.7
20260906153824 20 155 1.6 4.8 0.00 0.00 0.00 40 935.9
20260906153324 20 71 0.0 0.0 0.00 0.00 0.00 43 936.1
20260906152819 20 91 0.0 0.0 0.00 0.00 0.00 43 936.2
20260906152314 19 109 0.0 0.0 0.00 0.00 0.00 45 936.1
20260906151813 18 79 0.0 0.0 0.00 0.00 0.00 47 936.1
20260906151309 18 59 0.0 0.0 0.00 0.00 0.00 47 936.0
20260906150804 18 60 0.0 0.0 0.00 0.00 0.00 46 936.0
20260906150300 18 81 0.0 0.0 0.00 0.00 0.00 48 935.9
20260906145759 17 62 0.0 0.0 0.00 0.00 0.00 49 936.1
20260906145257 17 77 0.0 0.0 0.00 0.00 0.00 50 936.5
20260906144753 16 90 0.0 0.0 0.00 0.00 0.00 50 936.1
20260906144248 16 73 0.0 0.0 0.00 0.00 0.00 50 936.2
20260906143747 15 73 0.0 0.0 0.00 0.00 0.00 51 936.2
20260906143244 15 98 0.0 0.0 0.00 0.00 0.00 52 936.0
20260906142744 14 83 0.0 3.2 0.00 0.00 0.00 53 936.2
20260906142239 13 93 4.8 8.0 0.00 0.00 0.00 53 936.5
20260906141738 13 98 0.0 0.0 0.00 0.00 0.00 55 936.7
20260906141233 13 58 0.0 0.0 0.00 0.00 0.00 55 936.9
20260906140732 12 85 0.0 0.0 0.00 0.00 0.00 58 936.9
20260906140227 12 72 0.0 1.6 0.00 0.00 0.00 57 937.4
20260906135724 11 56 0.0 0.0 0.00 0.00 0.00 59 937.4
20260906135220 11 74 0.0 0.0 0.00 0.00 0.00 60 937.3
20260906134715 11 70 0.0 1.6 0.00 0.00 0.00 61 937.2
20260906134211 10 93 0.0 0.0 0.00 0.00 0.00 62 936.6
20260906133706 10 113 0.0 0.0 0.00 0.00 0.00 62 935.8
20260906133201 10 85 0.0 0.0 0.00 0.00 0.00 61 935.0
20260906132656 10 107 0.0 3.2 0.00 0.00 0.00 60 935.0
20260906132152 10 128 4.8 8.0 0.00 0.00 0.00 60 935.1
20260906131648 9 98 0.0 1.6 0.00 0.00 0.00 65 935.0
20260906131142 8 87 0.0 0.0 0.00 0.00 0.00 65 934.9
20260906130638 8 130 0.0 0.0 0.00 0.00 0.00 66 934.7
20260906130133 8 67 0.0 0.0 0.00 0.00 0.00 67 934.9
20260906125630 8 54 0.0 0.0 0.00 0.00 0.00 67 934.8
20260906125129 8 56 0.0 0.0 0.00 0.00 0.00 66 934.8
20260906124625 8 51 0.0 0.0 0.00 0.00 0.00 67 934.5
20260906124120 8 77 0.0 0.0 0.00 0.00 0.00 67 934.4
20260906123620 8 56 0.0 0.0 0.00 0.00 0.00 67 934.5
20260906123115 8 112 0.0 0.0 0.00 0.00 0.00 66 934.7
20260906122614 8 97 0.0 0.0 0.00 0.00 0.00 65 934.4
20260906122110 9 64 0.0 0.0 0.00 0.00 0.00 64 935.0
20260906121606 9 44 0.0 0.0 0.00 0.00 0.00 63 934.9
20260906121102 10 97 0.0 0.0 0.00 0.00 0.00 61 934.9
20260906120557 10 142 0.0 0.0 0.00 0.00 0.00 59 934.8
20260906120054 10 60 0.0 8.0 0.00 0.00 0.00 61 934.8
20260906115555 8 13 0.0 0.0 0.00 0.00 0.00 65 934.4
20260906115050 9 104 0.0 0.0 0.00 0.00 0.00 65 934.5
20260906114549 9 127 0.0 1.6 0.00 0.00 0.00 65 934.9
20260906114045 8 124 0.0 0.0 0.00 0.00 0.00 65 934.7
20260906113544 9 94 0.0 0.0 0.00 0.00 0.00 65 934.9
20260906113039 9 129 0.0 0.0 0.00 0.00 0.00 65 934.8
20260906112534 9 126 0.0 0.0 0.00 0.00 0.00 64 934.9
20260906112031 9 122 0.0 0.0 0.00 0.00 0.00 64 934.9
20260906111530 10 113 0.0 0.0 0.00 0.00 0.00 62 934.8
20260906111026 10 94 0.0 0.0 0.00 0.00 0.00 62 934.9
20260906110525 10 143 0.0 0.0 0.00 0.00 0.00 62 934.9
20260906110024 10 99 0.0 1.6 0.00 0.00 0.00 61 934.9
20260906105520 10 72 0.0 1.6 0.00 0.00 0.00 61 934.5
20260906105016 10 132 0.0 1.6 0.00 0.00 0.00 61 934.9
20260906104514 10 130 1.6 1.6 0.00 0.00 0.00 61 934.8
20260906104009 10 131 0.0 1.6 0.00 0.00 0.00 61 934.9
20260906103507 10 123 0.0 0.0 0.00 0.00 0.00 60 935.0
20260906103003 10 132 0.0 0.0 0.00 0.00 0.00 58 935.0
20260906102502 11 167 0.0 1.6 0.00 0.00 0.00 57 935.1
20260906102002 11 92 0.0 1.6 0.00 0.00 0.00 57 934.9
20260906101457 10 104 0.0 3.2 0.00 0.00 0.00 58 934.8
20260906100953 10 79 0.0 0.0 0.00 0.00 0.00 59 934.7
20260906100448 10 113 0.0 0.0 0.00 0.00 0.00 60 934.7
20260906095948 10 116 0.0 0.0 0.00 0.00 0.00 60 934.5
20260906095443 9 140 0.0 0.0 0.00 0.00 0.00 63 934.5
20260906094938 10 55 0.0 0.0 0.00 0.00 0.00 63 934.5
20260906094432 10 44 0.0 0.0 0.00 0.00 0.00 62 934.5
20260906093928 10 67 0.0 1.6 0.00 0.00 0.00 62 934.5
20260906093424 10 66 0.0 0.0 0.00 0.00 0.00 62 934.7
20260906092919 10 114 0.0 0.0 0.00 0.00 0.00 62 934.4
20260906092418 10 122 0.0 0.0 0.00 0.00 0.00 62 934.3
20260906091914 10 104 0.0 0.0 0.00 0.00 0.00 62 934.3
20260906091409 10 65 0.0 0.0 0.00 0.00 0.00 61 934.4
20260906090906 10 57 0.0 0.0 0.00 0.00 0.00 60 934.3
20260906090405 10 80 0.0 0.0 0.00 0.00 0.00 60 934.3
20260906085900 10 60 0.0 0.0 0.00 0.00 0.00 59 934.3
20260906085359 10 48 0.0 0.0 0.00 0.00 0.00 60 934.3
20260906084854 10 51 0.0 0.0 0.00 0.00 0.00 60 934.4
20260906084353 10 75 0.0 0.0 0.00 0.00 0.00 60 934.2
20260906083848 11 76 0.0 0.0 0.00 0.00 0.00 59 934.3
20260906083344 11 104 0.0 0.0 0.00 0.00 0.00 59 934.3
20260906082843 11 71 0.0 0.0 0.00 0.00 0.00 58 934.2
20260906082338 11 66 0.0 0.0 0.00 0.00 0.00 58 934.3
20260906081834 11 68 0.0 0.0 0.00 0.00 0.00 59 934.4
20260906081330 11 73 0.0 0.0 0.00 0.00 0.00 57 934.2
20260906080826 11 85 0.0 0.0 0.00 0.00 0.00 58 934.3
20260906080322 11 75 0.0 0.0 0.00 0.00 0.00 59 934.4
20260906075821 11 67 0.0 0.0 0.00 0.00 0.00 57 934.2
20260906075321 11 69 0.0 0.0 0.00 0.00 0.00 57 934.3
20260906074817 11 98 0.0 0.0 0.00 0.00 0.00 56 934.5
20260906074316 12 76 0.0 0.0 0.00 0.00 0.00 56 934.7
20260906073815 12 77 0.0 0.0 0.00 0.00 0.00 55 934.4
20260906073310 12 52 0.0 0.0 0.00 0.00 0.00 57 934.4
20260906072807 12 55 0.0 0.0 0.00 0.00 0.00 55 934.3
20260906072305 12 51 0.0 0.0 0.00 0.00 0.00 56 934.4
20260906071758 12 78 0.0 0.0 0.00 0.00 0.00 55 934.4
20260906071258 12 59 0.0 0.0 0.00 0.00 0.00 58 934.3
20260906070755 12 69 0.0 0.0 0.00 0.00 0.00 56 934.4
20260906070250 11 89 0.0 0.0 0.00 0.00 0.00 58 934.3
20260906065750 11 65 0.0 0.0 0.00 0.00 0.00 60 934.3
20260906065245 11 65 0.0 0.0 0.00 0.00 0.00 58 934.3
20260906064741 11 67 0.0 0.0 0.00 0.00 0.00 58 934.4
20260906064236 12 83 0.0 0.0 0.00 0.00 0.00 58 934.2
20260906063731 12 82 0.0 0.0 0.00 0.00 0.00 58 934.2
20260906063227 11 84 0.0 0.0 0.00 0.00 0.00 59 934.1
20260906062722 12 83 0.0 0.0 0.00 0.00 0.00 59 934.2
20260906062221 12 87 0.0 0.0 0.00 0.00 0.00 58 934.2
20260906061717 12 110 0.0 0.0 0.00 0.00 0.00 56 934.2
20260906061213 12 96 0.0 0.0 0.00 0.00 0.00 55 934.2
20260906060708 13 97 0.0 0.0 0.00 0.00 0.00 54 934.4
20260906060206 12 113 0.0 0.0 0.00 0.00 0.00 56 934.0
20260906055701 12 94 0.0 0.0 0.00 0.00 0.00 56 933.7
20260906055156 12 70 0.0 0.0 0.00 0.00 0.00 55 934.1
20260906054651 13 74 0.0 0.0 0.00 0.00 0.00 55 934.1
20260906054146 13 68 0.0 0.0 0.00 0.00 0.00 54 934.1
20260906053643 13 71 0.0 0.0 0.00 0.00 0.00 54 933.7
20260906053137 13 90 0.0 0.0 0.00 0.00 0.00 54 934.1
20260906052633 13 72 0.0 0.0 0.00 0.00 0.00 53 934.0
20260906052130 13 75 0.0 0.0 0.00 0.00 0.00 53 933.9
20260906051626 13 66 0.0 0.0 0.00 0.00 0.00 52 934.0
20260906051125 13 84 0.0 0.0 0.00 0.00 0.00 52 934.0
20260906050621 13 82 0.0 0.0 0.00 0.00 0.00 51 933.9
20260906050116 13 65 0.0 0.0 0.00 0.00 0.00 51 934.0
20260906045614 13 64 0.0 0.0 0.00 0.00 0.00 50 933.7
20260906045110 13 78 0.0 0.0 0.00 0.00 0.00 50 933.9
20260906044606 14 82 0.0 3.2 0.00 0.00 0.00 48 934.2
20260906044100 14 60 0.0 0.0 0.00 0.00 0.00 46 933.9
20260906043557 14 107 0.0 0.0 0.00 0.00 0.00 45 934.0
20260906043052 14 52 0.0 0.0 0.00 0.00 0.00 47 933.9
20260906042551 15 57 0.0 0.0 0.00 0.00 0.00 45 933.7
20260906042046 15 67 0.0 0.0 0.00 0.00 0.00 45 933.6
20260906041543 14 72 0.0 0.0 0.00 0.00 0.00 46 933.5
20260906041043 14 67 0.0 0.0 0.00 0.00 0.00 46 933.2
20260906040538 14 63 0.0 0.0 0.00 0.00 0.00 47 933.5
20260906040033 15 65 0.0 0.0 0.00 0.00 0.00 45 933.5
20260906035528 15 70 0.0 0.0 0.00 0.00 0.00 44 933.3
20260906035025 15 74 0.0 0.0 0.00 0.00 0.00 44 932.7
20260906034524 15 44 0.0 0.0 0.00 0.00 0.00 44 932.8
20260906034019 15 55 0.0 0.0 0.00 0.00 0.00 44 932.9
20260906033514 15 62 0.0 0.0 0.00 0.00 0.00 41 932.7
20260906033010 16 71 0.0 0.0 0.00 0.00 0.00 41 932.8
20260906032507 16 66 0.0 0.0 0.00 0.00 0.00 39 932.7
20260906032007 16 62 0.0 0.0 0.00 0.00 0.00 38 932.6
20260906031502 16 61 0.0 0.0 0.00 0.00 0.00 38 932.4
20260906030957 17 91 0.0 0.0 0.00 0.00 0.00 36 932.3
20260906030451 17 67 0.0 1.6 0.00 0.00 0.00 36 932.5
20260906025946 17 66 0.0 0.0 0.00 0.00 0.00 36 932.0
20260906025446 17 52 0.0 0.0 0.00 0.00 0.00 37 932.1
20260906024944 18 51 0.0 0.0 0.00 0.00 0.00 40 931.7
20260906024444 18 61 0.0 0.0 0.00 0.00 0.00 37 931.9
20260906023939 18 62 0.0 0.0 0.00 0.00 0.00 33 931.6
20260906023436 18 19 0.0 0.0 0.00 0.00 0.00 33 931.8
20260906022935 18 18 0.0 0.0 0.00 0.00 0.00 34 932.8
20260906022431 19 19 0.0 0.0 0.00 0.00 0.00 35 933.2
20260906021926 20 18 0.0 0.0 0.00 0.00 0.00 29 933.3
20260906021426 20 18 0.0 0.0 0.00 0.00 0.00 33 933.3
20260906020920 20 18 0.0 0.0 0.00 0.00 0.00 31 933.1
20260906020415 20 18 0.0 0.0 0.00 0.00 0.00 32 933.3
20260906015909 21 18 0.0 0.0 0.00 0.00 0.00 29 933.2
20260906015409 21 18 0.0 0.0 0.00 0.00 0.00 27 933.3
20260906014903 22 18 0.0 0.0 0.00 0.00 0.00 27 933.2
20260906014402 22 18 0.0 0.0 0.00 0.00 0.00 25 933.2
20260906013859 23 12 0.0 0.0 0.00 0.00 0.00 24 933.2
20260906013354 23 12 0.0 0.0 0.00 0.00 0.00 23 933.4
20260906012849 24 0 0.0 0.0 0.00 0.00 0.00 22 933.5
20260906012344 25 9 0.0 0.0 0.00 0.00 0.00 21 933.4
20260906011844 25 307 0.0 0.0 0.00 0.00 0.00 23 933.5
20260906011339 25 2 0.0 0.0 0.00 0.00 0.00 21 933.3
20260906010835 25 232 3.2 12.9 0.00 0.00 0.00 20 933.5
20260906010331 25 195 6.4 14.5 0.00 0.00 0.00 21 933.5
20260906005826 26 191 8.0 17.7 0.00 0.00 0.00 21 933.4
20260906005325 26 307 3.2 3.2 0.00 0.00 0.00 21 933.6
20260906004824 26 270 0.0 3.2 0.00 0.00 0.00 20 933.4
20260906004324 26 273 0.0 9.7 0.00 0.00 0.00 19 933.5
20260906003819 26 191 0.0 3.2 0.00 0.00 0.00 20 933.9
20260906003314 26 244 11.3 14.5 0.00 0.00 0.00 20 933.6
20260906002810 27 326 4.8 14.5 0.00 0.00 0.00 20 933.7
20260906002309 26 342 6.4 11.3 0.00 0.00 0.00 19 933.5
20260906001805 27 278 4.8 20.9 0.00 0.00 0.00 19 933.5
20260906001300 27 244 3.2 11.3 0.00 0.00 0.00 18 933.4
20260906000756 27 323 0.0 12.9 0.00 0.00 0.00 19 933.6
20260906000256 27 312 1.6 4.8 0.00 0.00 0.00 19 933.5
20260905235750 27 232 9.7 14.5 0.00 0.00 0.00 19 933.6
20260905235250 27 263 14.5 16.1 0.00 0.00 0.00 18 933.5